Location: Atherton
(17.2661°S, 145.4859°E)
Time: 04:28:52
(UTC+10:00)

Transit 4A - Pass Details

Date: 03 July 2025
Orbit: 868 x 973 km, 66.8° (Epoch: 19 July)

Event Time Altitude Azimuth Distance (km) Brightness Sun altitude
Rises 19:24:03 0° 343° (NNW) 3,434 11.4 -20.5°
Reaches altitude 10° 19:26:30 10° 344° (NNW) 2,505 10.6 -21.0°
Maximum altitude 19:32:16 79° 69° (ENE) 899 7.6 -22.3°
Enters shadow 19:34:32 40° 149° (SSE) 1,292 8.3 -22.8°
